If you wish to contribute or participate in the discussions about articles you are invited to join SKYbrary as a registered user

 Actions

Aomori Airport

From SKYbrary Wiki

RJSA
Airport
ICAO: RJSA – IATA: AOJ
Summary
Name Aomori Airport
Region Asia and Pacific
Territory Japan JP.gif
Location Aomori, Aomori Prefecture
Serving Aomori
Elevation 198.12 m
650 ft198.12 m
Coordinates 40° 44' 17.81" N, 140° 41' 20.75" E
Runways
Designator Length Width Surface ROPS
6/24 3001 m9,845.801 ft
61 m200.131 ft
ASP yes/yes


METAR
Observation RJSA 162314Z 27015KT 4500 -SHRA BR FEW001 SCT003 BKN005 11/10 Q1004 RMK 1ST001 4ST003 6ST005 A2967
Station Aomori Airport
Date/Time 16 June 2019 23:14:00
Wind direction 270°
Wind speed 15 kts
Lowest cloud amount few clouds
Temperature 11°C
Dew point 10°C
Humidity 93%
QNH 1004 hPa
Weather condition n/a

Regional airport located 11.2 km6.048 nm
11,200 m
36,745.407 ft
south southwest of Aomori, the capital city of Aomori Prefecture in northern Japan.

Climatology

Humid Continental climate (Köppen climate classification Dfa)

Maps

Terrain

Loading map...

Airport Layout

Loading map...


Accidents & Serious Incidents at or in vicinity of RJSA

None on SKYbrary